Location: Unspecified
(0.0000°N, 0.0000°E)
Time: 11:49:57
(UTC+00:00)

Transit 4A - Pass Details

Date: 20 November 2019
Orbit: 870 x 975 km, 66.8° (Epoch: 07 December)

Event Time Altitude Azimuth Distance (km) Brightness Sun altitude
Rises 20:21:33 0° 210° (SSW) 3,668 11.7 -36.3°
Reaches altitude 10° 20:24:11 10° 215° (SW) 2,719 10.9 -36.9°
Enters shadow 20:28:43 41° 248° (WSW) 1,372 9.0 -37.9°
